TimeCDT,TemperatureF,Dew PointF,Humidity,Sea Level PressureIn,VisibilityMPH,Wind Direction,Wind SpeedMPH,Gust SpeedMPH,PrecipitationIn,Events,Conditions,WindDirDegrees,DateUTC
12:15 AM,64.8,62.8,93,29.72,10.0,WNW,4.6,-,N/A,,Overcast,290,2013-09-20 05:15:00
12:35 AM,64.8,62.8,93,29.72,10.0,WNW,3.5,-,N/A,,Overcast,290,2013-09-20 05:35:00
12:55 AM,64.6,62.8,94,-9999,7.0,Calm,Calm,-,N/A,,Overcast,0,2013-09-20 05:55:00
1:15 AM,64.6,62.8,94,29.71,7.0,West,3.5,-,N/A,,Overcast,280,2013-09-20 06:15:00
1:35 AM,64.6,62.8,94,29.71,7.0,WNW,3.5,-,N/A,,Overcast,290,2013-09-20 06:35:00
1:55 AM,64.8,63.0,94,29.71,7.0,West,3.5,-,N/A,,Light Drizzle,280,2013-09-20 06:55:00
2:15 AM,64.6,62.8,94,-9999,5.0,WSW,4.6,-,N/A,Rain,Rain,250,2013-09-20 07:15:00
2:35 AM,64.6,62.8,94,29.71,7.0,WSW,4.6,-,N/A,,Overcast,250,2013-09-20 07:35:00
2:55 AM,64.6,62.8,94,29.71,5.0,West,3.5,-,N/A,,Overcast,260,2013-09-20 07:55:00
3:15 AM,64.4,62.6,94,29.70,5.0,West,3.5,-,N/A,,Overcast,260,2013-09-20 08:15:00
3:35 AM,64.4,62.6,94,29.70,7.0,West,3.5,-,N/A,,Overcast,270,2013-09-20 08:35:00
3:55 AM,64.4,62.6,94,29.71,7.0,West,4.6,-,N/A,,Overcast,280,2013-09-20 08:55:00
4:15 AM,64.4,62.6,94,-9999,7.0,WNW,5.8,-,N/A,,Overcast,290,2013-09-20 09:15:00
4:35 AM,64.4,62.6,94,29.70,5.0,WNW,3.5,-,N/A,,Overcast,290,2013-09-20 09:35:00
4:55 AM,64.4,62.6,94,29.70,5.0,Calm,Calm,-,N/A,,Overcast,0,2013-09-20 09:55:00
5:15 AM,64.4,62.6,94,29.70,5.0,West,4.6,-,N/A,,Overcast,280,2013-09-20 10:15:00
5:35 AM,64.4,62.6,94,29.69,4.0,West,5.8,-,N/A,Rain,Light Rain,280,2013-09-20 10:35:00
5:55 AM,63.5,61.7,94,29.69,4.0,WNW,6.9,-,N/A,,Overcast,290,2013-09-20 10:55:00
6:15 AM,63.1,61.3,94,29.70,5.0,West,8.1,-,N/A,,Overcast,280,2013-09-20 11:15:00
6:35 AM,63.0,61.0,93,29.71,7.0,West,6.9,-,N/A,,Overcast,280,2013-09-20 11:35:00
6:55 AM,61.9,59.9,93,29.73,4.0,WNW,11.5,17.3,N/A,,Overcast,290,2013-09-20 11:55:00
7:15 AM,61.9,59.9,93,29.74,4.0,West,6.9,16.1,N/A,Rain,Light Rain,280,2013-09-20 12:15:00
7:35 AM,61.9,59.9,93,29.74,10.0,WNW,9.2,17.3,N/A,,Overcast,300,2013-09-20 12:35:00
7:55 AM,61.9,59.4,91,29.73,10.0,NW,6.9,-,N/A,,Mostly Cloudy,310,2013-09-20 12:55:00
8:15 AM,61.9,59.4,91,29.71,10.0,Calm,Calm,-,N/A,,Mostly Cloudy,0,2013-09-20 13:15:00
8:35 AM,61.9,59.4,91,29.71,10.0,West,3.5,-,N/A,,Mostly Cloudy,270,2013-09-20 13:35:00
8:55 AM,60.6,58.5,93,29.72,10.0,WSW,4.6,-,N/A,,Mostly Cloudy,240,2013-09-20 13:55:00
9:15 AM,61.9,59.5,92,29.73,10.0,WSW,6.9,-,N/A,,Scattered Clouds,250,2013-09-20 14:15:00
9:35 AM,61.9,59.4,91,29.74,10.0,West,9.2,-,N/A,,Mostly Cloudy,270,2013-09-20 14:35:00
9:55 AM,61.9,58.5,89,29.74,10.0,West,6.9,-,N/A,,Mostly Cloudy,260,2013-09-20 14:55:00
10:15 AM,61.9,57.0,84,29.75,10.0,WNW,5.8,16.1,N/A,,Overcast,290,2013-09-20 15:15:00
10:35 AM,63.1,56.1,78,29.75,10.0,West,11.5,-,N/A,,Mostly Cloudy,280,2013-09-20 15:35:00
10:55 AM,63.5,56.3,77,29.74,10.0,WNW,9.2,-,N/A,,Scattered Clouds,300,2013-09-20 15:55:00
11:15 AM,63.1,55.4,76,29.75,10.0,West,10.4,18.4,N/A,,Scattered Clouds,270,2013-09-20 16:15:00
11:35 AM,63.1,55.0,75,29.75,10.0,West,6.9,-,N/A,,Mostly Cloudy,280,2013-09-20 16:35:00
11:55 AM,64.4,55.6,73,29.74,10.0,West,9.2,-,N/A,,Scattered Clouds,270,2013-09-20 16:55:00
12:15 PM,65.5,53.6,65,29.73,10.0,West,6.9,-,N/A,,Scattered Clouds,270,2013-09-20 17:15:00
12:35 PM,66.6,54.9,66,29.73,10.0,West,11.5,16.1,N/A,,Mostly Cloudy,260,2013-09-20 17:35:00
12:55 PM,67.1,54.3,63,29.72,10.0,West,10.4,-,N/A,,Mostly Cloudy,280,2013-09-20 17:55:00
1:15 PM,64.4,54.0,69,29.73,10.0,West,15.0,20.7,N/A,,Mostly Cloudy,260,2013-09-20 18:15:00
1:35 PM,61.9,54.1,76,29.73,10.0,NW,8.1,18.4,N/A,,Overcast,310,2013-09-20 18:35:00
1:55 PM,63.5,55.2,74,29.73,10.0,WNW,6.9,17.3,N/A,,Mostly Cloudy,300,2013-09-20 18:55:00
2:15 PM,59.4,56.1,89,29.74,3.0,NNW,8.1,-,0.05,Rain,Rain,330,2013-09-20 19:15:00
2:35 PM,59.4,56.8,91,29.74,7.0,NW,4.6,-,0.05,,Light Drizzle,310,2013-09-20 19:35:00
2:55 PM,59.4,56.3,90,29.74,10.0,NW,12.7,17.3,0.05,,Overcast,320,2013-09-20 19:55:00
3:15 PM,59.4,54.9,85,29.75,10.0,WNW,12.7,21.9,N/A,,Mostly Cloudy,300,2013-09-20 20:15:00
3:35 PM,58.8,54.1,84,29.76,10.0,NW,10.4,18.4,N/A,,Overcast,310,2013-09-20 20:35:00
3:55 PM,56.8,52.3,85,29.76,10.0,NW,11.5,-,N/A,,Overcast,320,2013-09-20 20:55:00
4:15 PM,59.4,52.3,78,29.76,10.0,NW,10.4,20.7,N/A,,Overcast,310,2013-09-20 21:15:00
4:35 PM,59.4,52.2,77,29.77,10.0,West,10.4,-,N/A,,Mostly Cloudy,280,2013-09-20 21:35:00
4:55 PM,57.4,50.9,79,29.77,10.0,NW,10.4,17.3,N/A,,Overcast,310,2013-09-20 21:55:00
5:15 PM,58.5,51.3,77,29.78,10.0,NW,9.2,-,N/A,,Overcast,320,2013-09-20 22:15:00
5:35 PM,59.4,51.3,75,29.78,10.0,NNW,10.4,-,N/A,,Mostly Cloudy,330,2013-09-20 22:35:00
5:55 PM,58.1,50.2,75,29.78,10.0,NW,4.6,-,N/A,,Scattered Clouds,320,2013-09-20 22:55:00
6:15 PM,56.8,48.7,74,29.79,10.0,NW,9.2,-,N/A,,Scattered Clouds,310,2013-09-20 23:15:00
6:35 PM,56.8,49.6,77,29.79,10.0,NW,5.8,-,N/A,,Overcast,320,2013-09-20 23:35:00
6:55 PM,56.8,50.5,79,29.79,10.0,NNW,8.1,-,N/A,,Overcast,330,2013-09-20 23:55:00
7:15 PM,56.8,50.9,80,29.79,10.0,NW,6.9,-,N/A,,Overcast,320,2013-09-21 00:15:00
7:35 PM,56.8,50.0,78,29.80,10.0,NW,6.9,-,N/A,,Overcast,310,2013-09-21 00:35:00
7:55 PM,54.5,47.8,78,29.81,10.0,NW,6.9,-,N/A,,Mostly Cloudy,310,2013-09-21 00:55:00
8:15 PM,54.5,48.2,79,29.81,10.0,NW,4.6,-,N/A,,Mostly Cloudy,310,2013-09-21 01:15:00
8:35 PM,52.0,46.6,82,29.82,10.0,NW,4.6,-,N/A,,Scattered Clouds,320,2013-09-21 01:35:00
8:55 PM,51.8,46.6,82,29.82,10.0,NW,4.6,-,N/A,,Scattered Clouds,310,2013-09-21 01:55:00
9:15 PM,51.8,46.8,83,29.82,10.0,NW,3.5,-,N/A,,Mostly Cloudy,320,2013-09-21 02:15:00
9:35 PM,51.8,46.9,83,29.82,10.0,NW,4.6,-,N/A,,Scattered Clouds,320,2013-09-21 02:35:00
9:55 PM,51.8,47.5,85,29.82,10.0,NW,4.6,-,N/A,,Clear,320,2013-09-21 02:55:00
10:15 PM,51.8,46.9,83,29.82,10.0,NW,5.8,-,N/A,,Clear,320,2013-09-21 03:15:00
10:35 PM,51.8,47.3,85,29.82,10.0,NNW,5.8,-,N/A,,Clear,330,2013-09-21 03:35:00
10:55 PM,51.4,47.3,86,29.83,10.0,NW,4.6,-,N/A,,Clear,310,2013-09-21 03:55:00
11:15 PM,49.3,45.5,87,29.83,10.0,NW,4.6,-,N/A,,Clear,320,2013-09-21 04:15:00
11:35 PM,51.8,48.2,88,29.83,10.0,NW,3.5,-,N/A,,Mostly Cloudy,310,2013-09-21 04:35:00
11:55 PM,51.8,48.2,88,29.82,10.0,NW,4.6,-,N/A,,Overcast,310,2013-09-21 04:55:00